SAS9980 ENTC-ENGM

Flight info

Callsign SAS9980
Flight time 1h 40m
Altitude 40000
Route AMIMO DCT TUXOT Z101 SOMUB DCT BELGU
Aircraft A343/H-SDE2E3FGHIJ4J5M1RWXY/LB1D1

Departure

Time 2026-05-06 18:41
Airport Tromsø Airport (ENTC)

Arrival

Time 2026-05-06 20:21
Airport Oslo-Gardermoen International Airport (ENGM)
Time Latitude Longitude Altitude Speed Heading
2026-05-06 18:17 69.68085 18.91022 41 ft 0 kts 283°
2026-05-06 18:31 69.68083 18.91047 41 ft 3 kts 283°
2026-05-06 18:31 69.68078 18.91103 39 ft 3 kts 283°
2026-05-06 18:31 69.68073 18.91158 37 ft 2 kts 283°
2026-05-06 18:32 69.68070 18.91207 34 ft 3 kts 273°
2026-05-06 18:32 69.68071 18.91264 34 ft 3 kts 253°
2026-05-06 18:32 69.68078 18.91314 34 ft 3 kts 225°
2026-05-06 18:32 69.68093 18.91342 33 ft 2 kts 193°
2026-05-06 18:33 69.68112 18.91356 34 ft 3 kts 193°
2026-05-06 18:33 69.68132 18.91369 34 ft 3 kts 193°
2026-05-06 18:33 69.68151 18.91383 33 ft 2 kts 193°
2026-05-06 18:33 69.68152 18.91383 33 ft 0 kts 193°
2026-05-06 18:35 69.68150 18.91382 33 ft 2 kts 192°
2026-05-06 18:35 69.68120 18.91364 33 ft 7 kts 190°
2026-05-06 18:36 69.68084 18.91405 34 ft 5 kts 125°
2026-05-06 18:36 69.68082 18.91418 35 ft 0 kts 117°
2026-05-06 18:37 69.68081 18.91423 35 ft 1 kts 117°
2026-05-06 18:38 69.68064 18.91570 36 ft 15 kts 108°
2026-05-06 18:38 69.67980 18.91646 40 ft 15 kts 189°
2026-05-06 18:38 69.67838 18.91560 43 ft 26 kts 194°
2026-05-06 18:38 69.67621 18.91413 44 ft 35 kts 193°
2026-05-06 18:39 69.67389 18.91258 43 ft 35 kts 193°
2026-05-06 18:39 69.67296 18.91232 38 ft 8 kts 169°
2026-05-06 18:39 69.67255 18.91176 40 ft 7 kts 254°
2026-05-06 18:40 69.67312 18.91205 39 ft 8 kts 13°
2026-05-06 18:40 69.67366 18.91240 41 ft 10 kts 13°
2026-05-06 18:40 69.67581 18.91381 46 ft 64 kts 13°
2026-05-06 18:40 69.68240 18.91825 32 ft 128 kts 13°
2026-05-06 18:41 69.69236 18.92494 332 ft 155 kts 13°
2026-05-06 18:41 69.70280 18.93290 1050 ft 156 kts 16°
2026-05-06 18:41 69.71308 18.94268 1903 ft 155 kts 21°
2026-05-06 18:41 69.72400 18.95257 2377 ft 177 kts 13°
2026-05-06 18:42 69.73703 18.95968 2806 ft 201 kts 10°
2026-05-06 18:42 69.75152 18.96724 3366 ft 222 kts 11°
2026-05-06 18:42 69.76730 18.96986 4211 ft 232 kts 351°
2026-05-06 18:42 69.78205 18.95191 5244 ft 234 kts 320°
2026-05-06 18:43 69.79131 18.91398 6325 ft 234 kts 290°
2026-05-06 18:43 69.79559 18.86850 7394 ft 235 kts 283°
2026-05-06 18:43 69.79898 18.82223 8464 ft 236 kts 282°
2026-05-06 18:43 69.80239 18.77555 9512 ft 238 kts 283°
2026-05-06 18:44 69.80451 18.72784 10431 ft 240 kts 271°
2026-05-06 18:44 69.80174 18.67986 11140 ft 247 kts 252°
2026-05-06 18:44 69.79302 18.63662 11632 ft 264 kts 232°
2026-05-06 18:44 69.77810 18.60219 11975 ft 287 kts 214°
2026-05-06 18:45 69.76012 18.57312 12314 ft 305 kts 211°
2026-05-06 18:45 69.74095 18.54320 12703 ft 321 kts 212°
2026-05-06 18:45 69.72091 18.51151 13024 ft 336 kts 212°
2026-05-06 18:45 69.70003 18.47822 13411 ft 348 kts 212°
2026-05-06 18:46 69.67855 18.44387 13919 ft 355 kts 212°
2026-05-06 18:46 69.65690 18.40915 14477 ft 359 kts 212°
2026-05-06 18:46 69.63493 18.37397 15044 ft 363 kts 212°
2026-05-06 18:46 69.61275 18.33855 15638 ft 367 kts 211°
2026-05-06 18:47 69.59036 18.30283 16255 ft 370 kts 211°
2026-05-06 18:47 69.56777 18.26688 16942 ft 371 kts 211°
2026-05-06 18:47 69.54509 18.23086 17595 ft 375 kts 211°
2026-05-06 18:47 69.52238 18.19485 18213 ft 379 kts 211°
2026-05-06 18:48 69.49917 18.15814 18762 ft 383 kts 211°
2026-05-06 18:48 69.47569 18.12108 19320 ft 387 kts 211°
2026-05-06 18:48 69.45199 18.08378 19873 ft 391 kts 211°
2026-05-06 18:48 69.42807 18.04623 20419 ft 394 kts 210°
2026-05-06 18:49 69.40393 18.00843 20969 ft 398 kts 210°
2026-05-06 18:49 69.37957 17.97028 21483 ft 401 kts 211°
2026-05-06 18:49 69.35526 17.93068 22033 ft 405 kts 211°
2026-05-06 18:49 69.33081 17.89031 22539 ft 408 kts 211°
2026-05-06 18:50 69.30613 17.84976 23044 ft 412 kts 211°
2026-05-06 18:50 69.28121 17.80902 23513 ft 415 kts 211°
2026-05-06 18:50 69.25610 17.76814 23911 ft 419 kts 211°
2026-05-06 18:50 69.23071 17.72698 24327 ft 422 kts 211°
2026-05-06 18:51 69.20508 17.68556 24737 ft 425 kts 211°
2026-05-06 18:51 69.17959 17.64450 25134 ft 428 kts 210°
2026-05-06 18:51 69.15362 17.60278 25534 ft 431 kts 210°
2026-05-06 18:51 69.12751 17.56096 25924 ft 434 kts 210°
2026-05-06 18:52 69.10110 17.51878 26258 ft 439 kts 210°
2026-05-06 18:52 69.07440 17.47626 26498 ft 445 kts 210°
2026-05-06 18:52 69.04733 17.43326 26814 ft 449 kts 210°
2026-05-06 18:52 69.02006 17.39008 27148 ft 453 kts 210°
2026-05-06 18:53 68.99248 17.34653 27503 ft 456 kts 210°
2026-05-06 18:53 68.96480 17.30295 27893 ft 458 kts 210°
2026-05-06 18:53 68.93692 17.25920 28244 ft 461 kts 210°
2026-05-06 18:53 68.90889 17.21533 28587 ft 464 kts 210°
2026-05-06 18:54 68.88065 17.17125 28935 ft 467 kts 210°
2026-05-06 18:54 68.85222 17.12701 29265 ft 470 kts 210°
2026-05-06 18:54 68.82354 17.08253 29597 ft 473 kts 209°
2026-05-06 18:54 68.79472 17.03795 29930 ft 476 kts 209°
2026-05-06 18:55 68.76551 16.99446 30183 ft 479 kts 206°
2026-05-06 18:55 68.73454 16.96037 30507 ft 480 kts 197°
2026-05-06 18:55 68.70261 16.93785 30915 ft 478 kts 193°
2026-05-06 18:55 68.67010 16.91792 31307 ft 477 kts 193°
2026-05-06 18:56 68.63770 16.89823 31704 ft 477 kts 193°
2026-05-06 18:56 68.60526 16.87841 32065 ft 477 kts 193°
2026-05-06 18:56 68.57287 16.85856 32405 ft 477 kts 193°
2026-05-06 18:56 68.54052 16.83872 32752 ft 477 kts 193°
2026-05-06 18:57 68.50817 16.81889 33095 ft 476 kts 193°
2026-05-06 18:57 68.47584 16.79911 33441 ft 476 kts 193°
2026-05-06 18:57 68.44352 16.77940 33775 ft 476 kts 193°
2026-05-06 18:57 68.41115 16.75969 34070 ft 476 kts 193°
2026-05-06 18:58 68.37878 16.74004 34323 ft 476 kts 193°
2026-05-06 18:58 68.34637 16.72042 34565 ft 476 kts 194°
2026-05-06 18:58 68.31406 16.70092 34832 ft 476 kts 194°
2026-05-06 18:58 68.28172 16.68148 35104 ft 476 kts 194°
2026-05-06 18:59 68.24982 16.66234 35348 ft 476 kts 194°
2026-05-06 18:59 68.21747 16.64300 35607 ft 476 kts 194°
2026-05-06 18:59 68.18518 16.62372 35855 ft 476 kts 194°
2026-05-06 18:59 68.15275 16.60442 36106 ft 476 kts 194°
2026-05-06 19:00 68.12037 16.58521 36355 ft 476 kts 194°
2026-05-06 19:00 68.08805 16.56609 36609 ft 476 kts 194°
2026-05-06 19:00 68.05575 16.54704 36838 ft 476 kts 193°
2026-05-06 19:00 68.03427 16.53440 37009 ft 476 kts 193°
2026-05-06 19:01 67.99105 16.50905 37353 ft 475 kts 194°
2026-05-06 19:01 67.95877 16.49017 37582 ft 475 kts 194°
2026-05-06 19:01 67.92648 16.47133 37808 ft 475 kts 194°
2026-05-06 19:01 67.89415 16.45206 38042 ft 475 kts 195°
2026-05-06 19:02 67.86272 16.42553 38263 ft 474 kts 204°
2026-05-06 19:02 67.83247 16.39135 38503 ft 473 kts 205°
2026-05-06 19:02 67.80264 16.35479 38691 ft 472 kts 206°
2026-05-06 19:02 67.77298 16.31724 38856 ft 473 kts 207°
2026-05-06 19:03 67.74335 16.27952 39012 ft 473 kts 207°
2026-05-06 19:03 67.71364 16.24199 39158 ft 473 kts 206°
2026-05-06 19:03 67.68424 16.20527 39354 ft 473 kts 206°
2026-05-06 19:03 67.65448 16.16847 39516 ft 473 kts 206°
2026-05-06 19:04 67.62472 16.13196 39670 ft 473 kts 206°
2026-05-06 19:04 67.59483 16.09550 39819 ft 473 kts 206°
2026-05-06 19:04 67.56497 16.05923 39903 ft 475 kts 206°
2026-05-06 19:05 67.50449 15.98603 39915 ft 483 kts 206°
2026-05-06 19:05 67.44309 15.91212 39914 ft 487 kts 206°
2026-05-06 19:06 67.38152 15.83843 39912 ft 486 kts 206°
2026-05-06 19:06 67.32054 15.76583 39913 ft 485 kts 206°
2026-05-06 19:07 67.25912 15.69310 39914 ft 485 kts 206°
2026-05-06 19:07 67.19775 15.62083 39914 ft 485 kts 205°
2026-05-06 19:08 67.13617 15.54875 39914 ft 486 kts 205°
2026-05-06 19:08 67.07460 15.47710 39913 ft 485 kts 205°
2026-05-06 19:09 67.01303 15.40582 39910 ft 485 kts 205°
2026-05-06 19:09 66.95139 15.33487 39911 ft 486 kts 205°
2026-05-06 19:10 66.89009 15.26470 39911 ft 486 kts 205°
2026-05-06 19:10 66.82839 15.19447 39911 ft 486 kts 205°
2026-05-06 19:11 66.76666 15.12460 39913 ft 486 kts 205°
2026-05-06 19:11 66.70495 15.05512 39912 ft 485 kts 205°
2026-05-06 19:12 66.64321 14.98600 39917 ft 485 kts 205°
2026-05-06 19:12 66.58148 14.91724 39919 ft 485 kts 205°
2026-05-06 19:13 66.51964 14.84876 39931 ft 485 kts 205°
2026-05-06 19:13 66.45782 14.78067 39931 ft 485 kts 205°
2026-05-06 19:14 66.39606 14.71302 39937 ft 485 kts 205°
2026-05-06 19:14 66.34476 14.65708 39936 ft 485 kts 205°
2026-05-06 19:15 66.27279 14.57904 39938 ft 485 kts 205°
2026-05-06 19:15 66.21094 14.51238 39926 ft 485 kts 205°
2026-05-06 19:16 66.15909 14.45676 39937 ft 484 kts 205°
2026-05-06 19:16 66.09731 14.39083 39936 ft 484 kts 205°
2026-05-06 19:17 66.03568 14.32539 39934 ft 484 kts 205°
2026-05-06 19:17 65.97376 14.25999 39939 ft 484 kts 205°
2026-05-06 19:18 65.91185 14.19494 39926 ft 484 kts 205°
2026-05-06 19:18 65.84994 14.13024 39941 ft 483 kts 205°
2026-05-06 19:19 65.78804 14.06590 39940 ft 483 kts 205°
2026-05-06 19:19 65.72616 14.00192 39943 ft 483 kts 204°
2026-05-06 19:20 65.66466 13.93865 39939 ft 483 kts 204°
2026-05-06 19:20 65.60271 13.87525 39937 ft 483 kts 204°
2026-05-06 19:21 65.54081 13.81223 39947 ft 482 kts 204°
2026-05-06 19:21 65.47887 13.74949 39951 ft 482 kts 204°
2026-05-06 19:22 65.43178 13.70200 39950 ft 482 kts 204°
2026-05-06 19:22 65.36983 13.63981 39955 ft 482 kts 204°
2026-05-06 19:23 65.30785 13.57791 39941 ft 482 kts 204°
2026-05-06 19:23 65.24586 13.51633 39953 ft 482 kts 204°
2026-05-06 19:24 65.18397 13.45516 39954 ft 481 kts 204°
2026-05-06 19:24 65.12210 13.39430 39958 ft 481 kts 204°
2026-05-06 19:25 65.06011 13.33364 39963 ft 481 kts 204°
2026-05-06 19:25 64.99823 13.27339 39960 ft 481 kts 204°
2026-05-06 19:26 64.93624 13.21334 39962 ft 481 kts 204°
2026-05-06 19:26 64.87472 13.15404 39964 ft 481 kts 204°
2026-05-06 19:27 64.81267 13.09454 39964 ft 481 kts 204°
2026-05-06 19:27 64.75059 13.03528 39966 ft 482 kts 204°
2026-05-06 19:28 64.68844 12.97627 39965 ft 481 kts 204°
2026-05-06 19:28 64.62636 12.91762 39970 ft 481 kts 204°
2026-05-06 19:29 64.56505 12.85997 39972 ft 481 kts 204°
2026-05-06 19:29 64.50294 12.80185 39974 ft 481 kts 204°
2026-05-06 19:30 64.44087 12.74406 39973 ft 481 kts 204°
2026-05-06 19:30 64.37863 12.68640 39974 ft 480 kts 204°
2026-05-06 19:31 64.31666 12.62926 39980 ft 480 kts 204°
2026-05-06 19:31 64.22357 12.54395 39984 ft 480 kts 204°
2026-05-06 19:32 64.16185 12.48773 39990 ft 480 kts 204°
2026-05-06 19:32 64.09978 12.43145 39992 ft 480 kts 204°
2026-05-06 19:33 64.03770 12.37545 39992 ft 480 kts 203°
2026-05-06 19:33 63.97555 12.31964 39982 ft 480 kts 203°
2026-05-06 19:34 63.91303 12.26587 39983 ft 480 kts 202°
2026-05-06 19:34 63.85022 12.21417 39982 ft 480 kts 202°
2026-05-06 19:35 63.78751 12.16258 39977 ft 479 kts 202°
2026-05-06 19:35 63.72526 12.11123 39993 ft 478 kts 202°
2026-05-06 19:36 63.66271 12.05970 39979 ft 478 kts 202°
2026-05-06 19:36 63.60013 12.00838 39979 ft 478 kts 202°
2026-05-06 19:37 63.53757 11.95732 39975 ft 478 kts 202°
2026-05-06 19:37 63.47499 11.90649 39982 ft 477 kts 202°
2026-05-06 19:38 63.41251 11.85598 39990 ft 477 kts 202°
2026-05-06 19:38 63.35008 11.80575 39986 ft 477 kts 202°
2026-05-06 19:39 63.28618 11.76426 39990 ft 479 kts 197°
2026-05-06 19:39 63.22168 11.72699 39985 ft 479 kts 197°
2026-05-06 19:40 63.15743 11.68893 39988 ft 478 kts 198°
2026-05-06 19:40 63.09321 11.65065 39986 ft 478 kts 198°
2026-05-06 19:41 63.02943 11.61267 39984 ft 478 kts 198°
2026-05-06 19:41 62.96521 11.57459 39982 ft 478 kts 198°
2026-05-06 19:42 62.90106 11.53670 39973 ft 477 kts 198°
2026-05-06 19:42 62.83692 11.49899 39967 ft 477 kts 198°
2026-05-06 19:43 62.78870 11.47074 39955 ft 477 kts 198°
2026-05-06 19:43 62.72460 11.43334 39946 ft 477 kts 198°
2026-05-06 19:44 62.66043 11.39608 39916 ft 477 kts 198°
2026-05-06 19:44 62.59638 11.35905 39941 ft 476 kts 198°
2026-05-06 19:45 62.53248 11.32226 39967 ft 475 kts 198°
2026-05-06 19:45 62.50064 11.30401 39787 ft 470 kts 198°
2026-05-06 19:45 62.46927 11.28608 39558 ft 464 kts 198°
2026-05-06 19:46 62.43821 11.26835 39334 ft 460 kts 198°
2026-05-06 19:46 62.40727 11.25070 39118 ft 460 kts 198°
2026-05-06 19:46 62.37627 11.23305 38904 ft 461 kts 198°
2026-05-06 19:46 62.34566 11.21567 38677 ft 462 kts 198°
2026-05-06 19:47 62.31463 11.19808 38408 ft 462 kts 198°
2026-05-06 19:47 62.28350 11.18049 38147 ft 462 kts 198°
2026-05-06 19:47 62.25240 11.16295 37900 ft 462 kts 198°
2026-05-06 19:47 62.22133 11.14547 37624 ft 461 kts 198°
2026-05-06 19:48 62.19029 11.12804 37362 ft 461 kts 198°
2026-05-06 19:48 62.15926 11.11066 36976 ft 459 kts 198°
2026-05-06 19:48 62.12845 11.09345 36409 ft 458 kts 198°
2026-05-06 19:48 62.09750 11.07617 35745 ft 460 kts 198°
2026-05-06 19:49 62.06651 11.05890 35053 ft 461 kts 199°
2026-05-06 19:49 62.03547 11.04166 34419 ft 460 kts 199°
2026-05-06 19:49 62.00449 11.02448 33746 ft 460 kts 199°
2026-05-06 19:49 61.97377 11.00752 32691 ft 451 kts 199°
2026-05-06 19:50 61.94376 10.99103 31706 ft 438 kts 199°
2026-05-06 19:50 61.91480 10.97516 30860 ft 423 kts 200°
2026-05-06 19:50 61.88659 10.95966 30009 ft 420 kts 200°
2026-05-06 19:50 61.85810 10.94389 29095 ft 424 kts 200°
2026-05-06 19:51 61.83011 10.92853 28580 ft 418 kts 200°
2026-05-06 19:51 61.80202 10.91317 28020 ft 414 kts 200°
2026-05-06 19:51 61.77427 10.89803 27464 ft 409 kts 201°
2026-05-06 19:51 61.74682 10.88309 26922 ft 404 kts 201°
2026-05-06 19:52 61.71976 10.86838 26380 ft 400 kts 201°
2026-05-06 19:52 61.69288 10.85379 25826 ft 396 kts 201°
2026-05-06 19:52 61.66626 10.83936 25281 ft 393 kts 201°
2026-05-06 19:52 61.63997 10.82514 24719 ft 389 kts 201°
2026-05-06 19:53 61.61389 10.81107 24185 ft 386 kts 201°
2026-05-06 19:53 61.58797 10.79702 23646 ft 383 kts 201°
2026-05-06 19:53 61.56228 10.78319 23029 ft 380 kts 201°
2026-05-06 19:53 61.53679 10.76955 22467 ft 377 kts 200°
2026-05-06 19:54 61.51150 10.75600 21918 ft 373 kts 200°
2026-05-06 19:54 61.48645 10.74261 21343 ft 369 kts 202°
2026-05-06 19:54 61.46208 10.72959 20851 ft 365 kts 201°
2026-05-06 19:54 61.43767 10.71654 20328 ft 362 kts 201°
2026-05-06 19:55 61.41331 10.70353 19795 ft 359 kts 201°
2026-05-06 19:55 61.38913 10.69064 19332 ft 357 kts 200°
2026-05-06 19:55 61.36572 10.67832 19181 ft 333 kts 200°
2026-05-06 19:55 61.34435 10.66720 19036 ft 301 kts 201°
2026-05-06 19:56 61.32493 10.65707 18888 ft 276 kts 201°
2026-05-06 19:56 61.30676 10.64744 18756 ft 270 kts 201°
2026-05-06 19:56 61.28837 10.63747 18630 ft 274 kts 201°
2026-05-06 19:56 61.26989 10.62758 18517 ft 274 kts 201°
2026-05-06 19:57 61.25140 10.61776 18384 ft 275 kts 201°
2026-05-06 19:57 61.23280 10.60816 18267 ft 277 kts 199°
2026-05-06 19:57 61.21338 10.60421 18133 ft 286 kts 184°
2026-05-06 19:57 61.19363 10.61258 17900 ft 295 kts 167°
2026-05-06 19:58 61.17445 10.62804 17652 ft 303 kts 164°
2026-05-06 19:58 61.15469 10.64522 17571 ft 304 kts 163°
2026-05-06 19:58 61.13525 10.66211 17324 ft 302 kts 163°
2026-05-06 19:58 61.11589 10.67873 16944 ft 301 kts 163°
2026-05-06 19:59 61.09692 10.69500 16305 ft 297 kts 162°
2026-05-06 19:59 61.07843 10.71456 15559 ft 298 kts 159°
2026-05-06 19:59 61.05880 10.72492 14936 ft 289 kts 182°
2026-05-06 19:59 61.03886 10.72173 14361 ft 288 kts 191°
2026-05-06 20:00 61.01883 10.71495 13767 ft 296 kts 192°
2026-05-06 20:00 60.99805 10.71134 13280 ft 300 kts 182°
2026-05-06 20:00 60.97737 10.71186 13095 ft 294 kts 181°
2026-05-06 20:00 60.95717 10.71313 12960 ft 287 kts 180°
2026-05-06 20:01 60.93731 10.71465 12756 ft 284 kts 180°
2026-05-06 20:01 60.91763 10.71630 12510 ft 282 kts 180°
2026-05-06 20:01 60.89814 10.71802 12282 ft 278 kts 180°
2026-05-06 20:01 60.87893 10.71976 12061 ft 275 kts 180°
2026-05-06 20:02 60.85978 10.72152 11792 ft 274 kts 180°
2026-05-06 20:02 60.84081 10.72327 11523 ft 273 kts 180°
2026-05-06 20:02 60.82180 10.72504 11263 ft 272 kts 180°
2026-05-06 20:02 60.80293 10.72680 10989 ft 271 kts 180°
2026-05-06 20:03 60.78414 10.72855 10728 ft 270 kts 180°
2026-05-06 20:03 60.76536 10.73030 10470 ft 269 kts 180°
2026-05-06 20:03 60.75301 10.73145 10306 ft 268 kts 180°
2026-05-06 20:03 60.73443 10.73318 10046 ft 267 kts 179°
2026-05-06 20:04 60.70992 10.73546 9704 ft 265 kts 179°
2026-05-06 20:04 60.69747 10.73662 9527 ft 265 kts 179°
2026-05-06 20:04 60.67907 10.73833 9247 ft 263 kts 179°
2026-05-06 20:04 60.66076 10.74002 8992 ft 263 kts 179°
2026-05-06 20:05 60.64246 10.74172 8933 ft 264 kts 179°
2026-05-06 20:05 60.62412 10.74341 8930 ft 264 kts 179°
2026-05-06 20:05 60.60581 10.74511 8920 ft 264 kts 179°
2026-05-06 20:05 60.58745 10.74681 8927 ft 262 kts 179°
2026-05-06 20:06 60.56927 10.74848 8928 ft 262 kts 179°
2026-05-06 20:06 60.55126 10.75014 8931 ft 262 kts 179°
2026-05-06 20:06 60.53284 10.75184 8926 ft 262 kts 179°
2026-05-06 20:06 60.51486 10.75349 8927 ft 262 kts 179°
2026-05-06 20:07 60.49645 10.75517 8931 ft 262 kts 179°
2026-05-06 20:07 60.47848 10.75682 8925 ft 262 kts 179°
2026-05-06 20:07 60.46029 10.75849 8930 ft 262 kts 179°
2026-05-06 20:07 60.44212 10.76016 8934 ft 262 kts 179°
2026-05-06 20:08 60.42393 10.76182 8930 ft 262 kts 179°
2026-05-06 20:08 60.40574 10.76348 8928 ft 262 kts 179°
2026-05-06 20:08 60.38761 10.76515 8794 ft 260 kts 179°
2026-05-06 20:08 60.36950 10.76680 8592 ft 261 kts 179°
2026-05-06 20:09 60.35139 10.76844 8370 ft 260 kts 179°
2026-05-06 20:09 60.33336 10.77008 8097 ft 260 kts 179°
2026-05-06 20:09 60.31532 10.77172 7833 ft 259 kts 179°
2026-05-06 20:09 60.29739 10.77335 7583 ft 257 kts 179°
2026-05-06 20:10 60.27956 10.77494 7317 ft 258 kts 179°
2026-05-06 20:10 60.26156 10.77656 7091 ft 258 kts 179°
2026-05-06 20:10 60.24388 10.77818 6969 ft 250 kts 179°
2026-05-06 20:10 60.22671 10.77975 6848 ft 243 kts 179°
2026-05-06 20:11 60.21002 10.78126 6691 ft 238 kts 179°
2026-05-06 20:11 60.19352 10.78274 6452 ft 237 kts 179°
2026-05-06 20:11 60.17700 10.78423 6180 ft 237 kts 179°
2026-05-06 20:11 60.16053 10.78571 5917 ft 236 kts 179°
2026-05-06 20:12 60.14414 10.78718 5672 ft 235 kts 179°
2026-05-06 20:12 60.12780 10.78864 5415 ft 235 kts 179°
2026-05-06 20:12 60.11153 10.79010 5137 ft 234 kts 179°
2026-05-06 20:12 60.09535 10.79156 5015 ft 233 kts 179°
2026-05-06 20:13 60.07910 10.79301 4993 ft 234 kts 179°
2026-05-06 20:13 60.06285 10.79447 4995 ft 233 kts 179°
2026-05-06 20:13 60.04685 10.79589 4995 ft 233 kts 179°
2026-05-06 20:13 60.03061 10.79734 4997 ft 234 kts 179°
2026-05-06 20:14 60.01436 10.79877 4991 ft 234 kts 179°
2026-05-06 20:14 59.99792 10.79977 4987 ft 233 kts 178°
2026-05-06 20:14 59.98293 10.81131 4991 ft 236 kts 139°
2026-05-06 20:14 59.97489 10.83850 4982 ft 226 kts 99°
2026-05-06 20:15 59.97519 10.86855 4990 ft 216 kts 82°
2026-05-06 20:15 59.97734 10.89808 4929 ft 212 kts 81°
2026-05-06 20:15 59.97932 10.92637 4841 ft 200 kts 82°
2026-05-06 20:15 59.98103 10.95356 4560 ft 196 kts 83°
2026-05-06 20:16 59.98389 10.98009 4174 ft 195 kts 63°
2026-05-06 20:16 59.99303 10.99951 3827 ft 192 kts 36°
2026-05-06 20:16 60.00487 11.01075 3556 ft 187 kts 13°
2026-05-06 20:16 60.01710 11.01679 3490 ft 177 kts 12°
2026-05-06 20:17 60.02900 11.02336 3492 ft 177 kts 14°
2026-05-06 20:17 60.04086 11.03022 3493 ft 177 kts 14°
2026-05-06 20:17 60.05263 11.03710 3312 ft 176 kts 14°
2026-05-06 20:17 60.06430 11.04381 3060 ft 176 kts 14°
2026-05-06 20:18 60.07616 11.05058 2825 ft 175 kts 13°
2026-05-06 20:18 60.08789 11.05730 2569 ft 175 kts 14°
2026-05-06 20:18 60.09938 11.06390 2336 ft 170 kts 13°
2026-05-06 20:18 60.11025 11.07014 2090 ft 155 kts 13°
2026-05-06 20:19 60.12032 11.07591 1881 ft 142 kts 13°
2026-05-06 20:19 60.12942 11.08115 1702 ft 136 kts 12°
2026-05-06 20:19 60.13859 11.08641 1497 ft 137 kts 14°
2026-05-06 20:19 60.14773 11.09165 1306 ft 136 kts 14°
2026-05-06 20:20 60.15679 11.09696 1099 ft 135 kts 14°
2026-05-06 20:20 60.16579 11.10208 927 ft 134 kts 14°
2026-05-06 20:20 60.17475 11.10718 740 ft 134 kts 14°
2026-05-06 20:20 60.18328 11.11211 683 ft 113 kts 17°
2026-05-06 20:21 60.18963 11.11580 687 ft 77 kts 16°
2026-05-06 20:21 60.19247 11.11695 685 ft 32 kts
2026-05-06 20:21 60.19360 11.11607 681 ft 15 kts 311°
2026-05-06 20:21 60.19379 11.11522 681 ft 1 kts 284°
2026-05-06 20:22 60.19383 11.11497 683 ft 4 kts 289°
2026-05-06 20:22 60.19416 11.11462 681 ft 8 kts 345°
2026-05-06 20:22 60.19478 11.11486 683 ft 11 kts 14°
2026-05-06 20:22 60.19606 11.11552 681 ft 27 kts 14°
2026-05-06 20:23 60.19713 11.11583 681 ft 7 kts 332°
2026-05-06 20:23 60.19766 11.11412 683 ft 20 kts 292°
2026-05-06 20:23 60.19810 11.11134 680 ft 21 kts 285°
2026-05-06 20:23 60.19852 11.10846 682 ft 22 kts 286°
2026-05-06 20:24 60.19894 11.10551 684 ft 22 kts 285°
2026-05-06 20:24 60.19937 11.10250 685 ft 23 kts 286°
2026-05-06 20:24 60.19974 11.09969 685 ft 11 kts 271°
2026-05-06 20:24 60.19920 11.09890 681 ft 12 kts 197°
2026-05-06 20:25 60.19834 11.09840 683 ft 13 kts 195°
2026-05-06 20:25 60.19755 11.09825 683 ft 6 kts 152°
2026-05-06 20:25 60.19736 11.09900 684 ft 7 kts 105°
2026-05-06 20:25 60.19724 11.09985 686 ft 0 kts 106°
2026-05-06 20:26 60.19722 11.10003 683 ft 0 kts 106°